Wind_Speed
43 44 43 40 38 37 35 35 38 40 43 46 51 54 54 52 44 41 42 43 44 41 38 38 34 33 32 27 26 26 23 19 19 21 21 30 26 22 20 19 21 18 17 21 24
48 47 42 38 37 38 39 38 40 41 45 48 51 55 52 49 45 44 45 43 42 43 36 35 34 35 32 29 27 27 23 19 22 21 24 29 27 23 21 21 21 21 18 21 22
50 47 42 40 39 38 38 39 41 45 46 51 53 53 51 49 48 49 46 46 43 42 37 37 36 34 32 28 26 26 21 21 24 22 24 28 28 22 20 22 25 22 19 21 21
48 45 43 40 39 38 40 41 41 45 46 48 50 51 50 48 50 46 45 46 44 40 37 35 35 34 32 28 28 28 23 24 24 23 22 26 27 22 20 21 21 22 20 21 20
45 43 42 40 39 38 40 41 42 43 41 43 47 49 48 44 47 48 44 48 45 42 37 35 35 35 33 30 31 27 23 24 25 24 23 24 26 22 18 19 16 20 19 18 17
44 43 41 41 41 39 40 41 41 38 38 41 46 50 48 37 40 47 44 46 52 44 41 37 34 35 33 34 33 26 24 23 24 24 25 22 23 21 19 14 14 16 16 15 15
44 41 43 41 41 39 40 40 38 38 38 38 41 45 46 36 37 42 46 44 46 44 41 38 38 38 35 33 31 28 24 24 21 24 23 23 20 21 19 14 11 14 13 15 14
45 43 43 42 41 39 39 40 37 37 38 39 40 43 41 34 38 40 46 41 41 43 43 42 41 39 37 32 30 28 23 22 21 24 22 23 16 19 18 13 10 13 13 15 12
45 43 42 42 40 40 38 40 38 37 37 37 38 41 40 33 35 37 42 42 43 50 42 42 42 39 36 33 30 28 21 21 19 25 24 21 18 19 16 15 10 12 14 16 14
43 43 43 41 40 41 41 40 38 36 37 36 36 37 38 37 31 30 34 40 38 52 48 46 43 39 38 36 27 26 24 19 18 20 25 23 18 20 16 16 11 14 11 15 18
46 45 42 42 44 43 42 41 40 37 36 36 37 35 39 40 32 27 31 36 36 49 50 48 44 42 37 30 27 29 20 20 20 22 27 21 20 21 17 16 13 13 11 14 15
49 47 44 44 44 45 43 40 39 39 33 35 36 36 36 38 31 27 27 29 38 35 48 54 50 42 36 34 35 30 24 26 25 30 23 22 21 20 18 17 14 13 11 13 12
51 49 46 45 45 45 43 41 40 37 36 36 36 35 32 33 28 28 27 31 36 38 41 47 47 41 38 39 38 32 28 28 29 26 24 25 24 19 17 19 12 13 12 13 12
51 50 48 47 46 45 43 40 38 37 37 37 35 36 29 22 25 27 23 29 32 37 40 45 45 43 41 42 36 33 28 30 33 29 26 23 23 19 14 17 14 17 13 12 12
50 50 49 48 47 44 43 41 37 35 35 35 32 32 28 22 22 25 19 25 30 34 41 43 48 47 45 46 34 29 35 37 37 31 29 27 24 19 15 17 17 18 17 13 12
51 51 49 48 48 46 44 42 38 36 38 32 30 30 28 26 21 24 21 16 25 36 40 46 46 50 49 42 41 33 39 40 36 31 35 26 28 19 13 14 19 17 17 16 11
53 51 50 49 48 47 45 43 39 37 35 33 28 28 26 25 20 22 23 26 17 32 40 41 47 46 46 47 44 39 41 39 34 35 34 27 31 22 16 19 20 18 17 18 12
56 53 50 48 47 47 47 46 43 39 36 31 29 26 27 24 23 22 24 23 24 19 30 36 41 47 43 43 47 43 37 37 35 30 28 31 29 24 24 21 21 20 19 20 13
59 56 52 49 48 49 49 49 43 40 37 32 31 27 28 26 25 24 24 26 22 20 15 33 36 29 38 39 46 40 44 35 32 24 25 25 27 22 23 21 21 21 19 20 19
58 56 53 52 51 52 53 50 43 39 38 35 32 30 29 29 27 27 30 27 26 22 20 24 34 33 38 36 40 43 33 38 42 39 32 25 16 8 20 25 29 23 19 19 20
55 53 53 51 51 53 54 46 40 40 38 35 34 32 30 30 31 30 35 33 30 26 24 20 26 27 35 39 35 39 41 44 36 40 29 27 21 23 28 30 26 24 23 27 25
55 51 50 49 51 52 51 44 42 39 39 35 35 32 30 31 32 32 34 34 32 29 23 23 28 26 23 26 32 32 37 37 40 27 31 28 24 29 26 26 24 24 17 21 25
55 52 50 51 51 49 47 44 42 39 37 38 37 35 32 30 31 33 35 38 34 32 28 27 24 23 18 28 30 30 28 28 34 34 29 26 34 20 20 24 24 23 20 21 25
52 52 51 52 49 46 45 44 41 39 37 37 37 37 36 34 34 34 35 38 36 34 33 32 25 23 27 20 20 25 30 29 30 32 31 28 19 24 32 32 28 26 29 25 24
51 49 48 49 47 46 45 42 40 38 36 36 36 36 35 36 37 36 37 40 38 33 31 33 31 26 29 35 35 28 32 30 31 30 29 26 29 35 36 33 31 34 29 31 29
49 47 46 44 43 45 44 42 38 36 33 34 33 33 35 36 36 34 38 43 42 42 35 34 31 35 34 31 30 33 34 35 34 34 32 36 39 37 37 41 38 33 35 36 35
47 46 46 45 42 42 40 38 35 33 32 30 28 26 26 23 31 34 42 46 47 46 45 37 32 35 30 27 30 35 31 32 32 34 35 36 29 39 44 42 39 38 37 36 34
Wind_Direction
291 293 289 282 282 274 277 285 287 288 286 285 284 284 285 282 277 265 257 254 251 245 242 245 246 247 245 244 246 246 250 258 265 270 270 270 282 277 268 267 272 286 298 304 301
295 294 288 283 282 277 279 285 288 291 288 284 284 287 287 282 274 262 257 248 245 244 236 237 237 239 239 236 238 243 246 252 255 265 271 271 281 273 273 271 271 277 289 300 305
291 291 285 282 279 278 282 286 291 288 287 288 288 290 288 281 267 257 254 249 241 236 229 230 231 236 236 233 235 239 242 244 252 258 266 271 278 274 276 270 269 275 286 289 302
287 285 281 281 279 279 281 285 288 286 288 292 295 296 289 276 256 258 253 254 242 234 230 227 228 230 230 228 232 235 238 247 251 253 258 268 275 275 278 277 283 278 282 291 297
281 280 279 279 276 277 282 284 285 287 294 297 300 301 301 274 259 251 250 245 232 229 229 225 224 226 225 225 230 233 237 244 249 253 252 264 272 278 272 278 292 283 282 291 301
278 278 278 278 276 278 281 282 284 290 297 299 302 306 306 280 259 247 248 241 236 220 223 223 221 223 220 222 227 229 233 244 248 253 254 257 270 275 266 275 289 289 284 296 300
276 276 275 274 274 277 281 282 287 293 297 300 304 308 310 282 256 247 248 246 236 216 215 220 220 220 219 222 230 230 230 241 250 256 257 256 268 277 268 268 275 290 286 294 293
275 276 274 274 275 276 280 282 285 291 294 294 299 303 313 286 262 247 245 247 233 214 215 216 220 222 219 219 226 233 235 243 245 256 260 253 269 285 272 270 277 284 286 286 285
269 269 270 269 270 275 278 279 283 287 291 294 295 299 313 294 270 249 244 241 244 215 211 216 217 219 221 221 224 229 235 239 245 252 260 254 262 280 280 273 275 280 279 275 273
265 265 267 268 271 273 277 279 281 286 287 290 294 298 304 308 277 259 251 243 241 214 212 212 214 216 218 219 220 227 231 240 239 257 249 261 256 267 273 270 269 282 281 272 273
267 265 265 268 272 272 275 280 281 278 283 284 290 295 296 308 296 263 247 247 226 218 215 211 216 215 216 221 224 232 225 227 239 244 247 252 249 266 268 269 276 283 280 279 264
265 264 264 267 269 271 276 281 282 281 283 283 287 293 290 299 309 279 245 235 222 227 218 218 215 214 214 219 224 229 219 229 233 245 245 250 246 255 266 270 276 275 281 276 266
264 264 265 268 267 269 274 282 283 283 281 276 280 286 289 293 298 286 246 220 222 227 222 225 212 214 214 220 224 224 223 228 236 247 241 245 246 248 262 270 274 275 281 276 274
264 264 267 267 267 268 273 279 283 284 281 275 278 283 287 288 298 289 260 233 224 220 219 224 216 212 211 220 224 222 221 230 238 236 241 252 243 244 243 265 274 277 288 280 277
263 262 264 265 266 267 272 277 280 282 281 276 277 277 284 284 292 294 282 237 229 216 221 219 220 218 216 219 222 217 219 226 233 235 240 242 247 241 235 246 267 283 290 281 273
264 264 263 263 264 265 269 273 276 277 277 278 273 273 280 279 277 289 299 275 238 230 218 215 218 221 219 218 222 210 222 225 234 235 240 237 246 247 237 251 265 265 276 279 283
263 261 261 260 262 264 267 270 272 269 273 276 278 273 273 277 279 274 285 300 263 235 227 217 219 219 219 219 220 215 222 224 233 234 243 245 247 244 234 229 244 254 267 271 279
261 260 259 259 260 262 263 265 267 268 271 274 275 273 272 272 276 272 272 275 294 234 229 228 217 220 215 222 221 218 223 231 241 244 250 246 245 239 247 241 245 248 251 266 265
257 256 257 256 257 259 261 263 265 265 267 272 272 270 269 268 271 271 264 263 268 282 250 234 225 225 218 216 223 213 216 220 217 217 212 224 250 256 241 244 251 250 249 258 263
255 253 254 254 255 257 259 262 265 264 266 267 270 270 267 267 262 261 264 262 259 260 278 242 229 220 227 216 219 215 217 216 220 223 224 215 240 215 243 231 235 238 242 248 252
252 250 249 251 252 254 258 262 260 264 265 265 265 266 264 266 263 258 259 260 254 253 257 271 234 224 238 226 219 216 212 214 226 236 234 238 233 231 225 243 242 237 240 247 259
248 247 248 247 250 253 256 258 258 258 262 263 263 263 260 260 260 257 256 257 252 248 247 253 252 222 248 245 225 221 213 220 222 227 237 229 218 229 237 246 243 248 248 253 258
248 243 243 244 245 249 252 254 253 255 257 259 261 262 263 260 257 254 251 252 249 245 239 242 248 236 230 242 231 223 216 215 216 221 225 230 224 236 224 243 251 251 252 246 249
248 246 240 242 243 244 245 247 249 251 254 255 258 258 259 260 258 254 251 248 244 241 239 236 241 242 213 229 256 238 233 231 226 229 229 222 228 239 245 246 249 253 248 242 253
245 244 242 242 241 239 240 242 244 248 249 252 256 259 261 260 257 251 242 240 233 220 236 240 234 235 226 232 217 217 241 238 240 243 233 236 241 244 251 247 245 250 251 249 250
242 237 237 236 237 238 237 237 239 244 243 251 258 260 259 257 252 243 238 234 229 222 212 226 233 233 237 237 240 240 241 247 241 240 242 250 253 256 262 253 254 257 257 255 252
228 229 229 230 230 233 235 234 235 236 238 246 252 252 248 246 243 238 232 234 228 223 209 207 214 223 239 239 235 240 243 243 245 245 250 255 257 254 261 264 264 267 263 255 253
Height
5772 5771 5769 5768 5767 5767 5767 5765 5764 5762 5759 5755 5752 5749 5748 5748 5747 5747 5750 5751 5751 5753 5756 5760 5763 5767 5768 5771 5774 5775 5776 5776 5778 5778 5778 5773 5773 5770 5768 5767 5766 5765 5763 5761 5758
5762 5761 5761 5759 5758 5758 5758 5756 5755 5751 5748 5746 5743 5739 5737 5737 5738 5736 5738 5738 5741 5744 5746 5751 5754 5757 5761 5763 5767 5769 5769 5771 5773 5773 5773 5770 5768 5766 5765 5762 5762 5761 5759 5758 5755
5753 5752 5752 5751 5750 5748 5747 5746 5744 5742 5737 5736 5731 5729 5727 5725 5727 5719 5727 5729 5731 5734 5736 5740 5744 5750 5754 5757 5761 5763 5764 5764 5766 5767 5768 5767 5765 5762 5760 5759 5757 5757 5757 5754 5752
5743 5743 5744 5742 5742 5740 5738 5736 5734 5732 5728 5725 5721 5720 5715 5712 5711 5716 5717 5721 5724 5726 5729 5732 5737 5742 5747 5750 5754 5755 5757 5758 5760 5760 5762 5763 5761 5759 5756 5756 5754 5753 5753 5750 5748
5733 5734 5734 5733 5733 5731 5729 5727 5724 5721 5719 5715 5711 5709 5703 5700 5701 5702 5708 5710 5711 5718 5722 5725 5729 5735 5739 5743 5746 5750 5750 5752 5754 5755 5756 5757 5757 5755 5753 5751 5751 5749 5749 5747 5745
5723 5722 5723 5723 5723 5721 5719 5719 5716 5713 5709 5706 5703 5698 5694 5692 5692 5690 5695 5701 5704 5707 5713 5718 5722 5727 5731 5735 5739 5743 5744 5746 5748 5750 5751 5752 5752 5751 5749 5747 5747 5746 5744 5743 5742
5713 5712 5714 5712 5713 5711 5711 5710 5707 5704 5700 5699 5695 5690 5687 5681 5680 5682 5684 5692 5695 5698 5703 5709 5714 5719 5726 5728 5735 5737 5739 5740 5743 5745 5746 5747 5749 5747 5745 5744 5743 5742 5740 5739 5739
5705 5704 5704 5705 5704 5703 5703 5703 5698 5695 5693 5691 5688 5683 5681 5674 5672 5675 5676 5684 5688 5691 5697 5701 5707 5713 5718 5722 5728 5732 5734 5735 5737 5739 5741 5743 5745 5744 5743 5741 5739 5738 5736 5736 5735
5692 5693 5694 5694 5694 5696 5694 5694 5690 5688 5686 5685 5682 5677 5675 5668 5664 5666 5670 5675 5677 5683 5688 5694 5699 5707 5712 5716 5721 5727 5730 5731 5733 5734 5736 5738 5739 5740 5739 5739 5735 5734 5733 5732 5732
5680 5681 5683 5684 5686 5687 5686 5684 5681 5679 5679 5677 5675 5672 5669 5663 5658 5659 5661 5665 5669 5675 5681 5686 5692 5699 5705 5708 5716 5722 5724 5726 5729 5732 5732 5733 5735 5735 5736 5736 5732 5731 5730 5729 5728
5672 5672 5671 5675 5678 5679 5678 5676 5675 5673 5673 5670 5667 5668 5659 5657 5653 5652 5653 5656 5661 5667 5675 5680 5685 5690 5700 5707 5712 5715 5719 5724 5725 5726 5726 5729 5731 5731 5732 5733 5730 5728 5727 5725 5725
5663 5663 5662 5663 5667 5670 5668 5666 5665 5665 5667 5663 5660 5660 5655 5650 5649 5643 5647 5649 5655 5661 5668 5670 5674 5686 5693 5698 5701 5707 5711 5715 5718 5718 5722 5724 5726 5727 5728 5728 5727 5726 5724 5723 5722
5651 5654 5653 5655 5656 5659 5658 5657 5657 5656 5657 5655 5653 5653 5651 5647 5644 5639 5640 5643 5648 5654 5659 5665 5673 5678 5684 5689 5694 5701 5705 5709 5711 5713 5718 5719 5721 5723 5724 5724 5723 5723 5723 5721 5719
5638 5642 5644 5646 5649 5648 5649 5649 5649 5648 5647 5647 5647 5646 5645 5642 5640 5635 5634 5638 5643 5648 5653 5657 5665 5669 5674 5680 5688 5694 5701 5702 5702 5708 5712 5714 5717 5718 5720 5719 5719 5720 5720 5719 5717
5626 5629 5632 5635 5637 5638 5640 5641 5641 5642 5641 5640 5641 5639 5638 5637 5636 5632 5630 5631 5636 5641 5644 5651 5656 5663 5667 5672 5683 5691 5692 5693 5694 5700 5705 5710 5713 5714 5716 5717 5716 5716 5714 5715 5714
5614 5618 5619 5623 5626 5627 5629 5632 5633 5635 5630 5633 5633 5634 5633 5633 5631 5628 5626 5626 5629 5630 5635 5641 5648 5654 5660 5667 5672 5682 5683 5686 5688 5694 5696 5705 5707 5709 5712 5715 5712 5712 5712 5712 5711
5602 5604 5607 5609 5614 5616 5618 5622 5624 5624 5625 5624 5626 5626 5627 5626 5626 5625 5623 5622 5624 5626 5630 5636 5640 5647 5653 5658 5665 5672 5676 5681 5684 5687 5691 5699 5699 5706 5706 5707 5707 5707 5707 5707 5708
5587 5592 5593 5597 5601 5604 5606 5611 5612 5614 5615 5618 5618 5619 5619 5621 5620 5620 5620 5620 5620 5621 5623 5628 5634 5641 5645 5651 5657 5664 5673 5679 5682 5686 5688 5692 5689 5700 5700 5701 5702 5702 5703 5701 5703
5571 5576 5581 5583 5588 5590 5594 5596 5602 5604 5607 5608 5610 5612 5612 5614 5616 5615 5615 5616 5616 5617 5618 5622 5627 5631 5636 5642 5649 5656 5659 5672 5673 5675 5681 5687 5687 5693 5696 5696 5697 5697 5698 5698 5698
5554 5561 5565 5570 5572 5576 5580 5585 5590 5593 5596 5598 5600 5603 5605 5607 5610 5611 5609 5611 5612 5613 5614 5618 5621 5625 5628 5632 5640 5647 5656 5662 5663 5668 5672 5681 5684 5687 5688 5692 5689 5692 5693 5693 5693
5537 5544 5548 5553 5556 5561 5567 5574 5578 5580 5584 5588 5590 5593 5596 5598 5601 5604 5603 5605 5608 5609 5610 5614 5616 5621 5623 5627 5633 5641 5644 5651 5659 5662 5668 5673 5680 5682 5680 5684 5687 5688 5689 5687 5687
5519 5529 5534 5537 5543 5548 5556 5562 5565 5569 5571 5576 5579 5582 5586 5589 5592 5595 5597 5599 5602 5604 5609 5609 5610 5614 5619 5623 5626 5632 5638 5645 5651 5657 5660 5666 5670 5670 5673 5677 5679 5681 5683 5684 5684
5503 5513 5519 5521 5528 5536 5544 5548 5552 5557 5560 5563 5566 5570 5574 5579 5583 5586 5589 5590 5596 5599 5602 5603 5606 5610 5618 5618 5621 5623 5631 5637 5643 5648 5651 5656 5663 5663 5662 5668 5671 5673 5676 5678 5677
5488 5497 5505 5507 5517 5525 5531 5535 5541 5545 5548 5551 5555 5559 5564 5569 5572 5577 5581 5582 5588 5592 5596 5599 5603 5605 5611 5617 5620 5620 5623 5628 5633 5638 5645 5649 5655 5657 5656 5660 5663 5664 5666 5669 5672
5473 5486 5492 5497 5505 5513 5517 5525 5529 5534 5538 5541 5545 5549 5553 5558 5561 5565 5569 5573 5579 5587 5589 5592 5597 5600 5602 5604 5609 5616 5617 5622 5627 5632 5637 5642 5643 5646 5647 5650 5653 5654 5661 5662 5664
5462 5473 5480 5486 5494 5500 5507 5514 5520 5525 5530 5532 5537 5539 5542 5547 5550 5554 5558 5561 5569 5576 5584 5586 5589 5593 5595 5598 5603 5606 5611 5616 5620 5624 5629 5631 5632 5634 5637 5636 5642 5649 5651 5652 5655
5449 5459 5466 5475 5483 5490 5498 5505 5511 5515 5521 5524 5527 5531 5535 5537 5538 5542 5546 5550 5556 5565 5574 5580 5584 5587 5590 5593 5596 5600 5605 5610 5614 5617 5620 5622 5626 5621 5623 5629 5633 5636 5638 5642 5645